Powrót do katalogu

TANSUO 1

AktywnyNaukaPO
NORAD 28220·PAYLOAD·🇨🇳 China

Wystrzelony Apr 18, 2004 z Xichang Satellite Launch Center

Loading…

Następne Przeloty (najbliższe 24 godziny)

TLE

ŚwieżeSource: Space-Track

Epoka: Sep 14, 2026, 05:46 UTC

1 28220U 04012A   26257.24093774  .00011123  00000-0  32106-3 0  9992
2 28220  97.8639 341.2122 0006311  70.7733 289.4191 15.35854611224754

Śledź TANSUO 1 w czasie rzeczywistym z AllMySat

Download on the App Store